User: anonymous   Login
Location: Unspecified
(0.0000°N, 0.0000°E)
Time: 22:21:36
(UTC+00:00)
Language:

STARLINK-4179 - Orbit

View from above orbital plane
View from above orbital plane
View from above satellite
View from above satellite

Ground track
Ground track

The orbit is defined by the following mean orbital elements,

1 53275U          26145.53064586 +.00000000 +00000-0 +29629-4 0 00002
2 53275  53.2109 199.1668 0001051  71.1324 288.9782 15.08833686    01
Epoch (UTC): 25 May 2026 12:44:07
Eccentricity: 0.0001051
inclination: 53.2109°
perigee height: 539 km
apogee height: 540 km
right ascension of ascending node: 199.1668°
argument of perigee: 71.1324°
revolutions per day: 15.08833686
mean anomaly at epoch: 288.9782°

The dashed part of the orbit path shows where the satellite is in the earth's shadow,  

DLR